Durbe

Latvia     56˚35′19″N   21˚22′08″E
temp.,
°C
wind,
m/s
gust,
m/s
humid.,
%
clouds,
%
prec.,
mm/h
press.,
hPa
HPBL,
m
2 december, wed
wed223:00−1˚sse388590 0.0 1028321
02:00−1˚sse378574 0.0 1029282
05:00−2˚sse368677 0.0 1028258
08:00−2˚sse378439 0.0 1028289
11:00−1˚sse37770 0.0 1028390
14:00sse36690 0.0 1026574
17:00−1˚se38760 0.0 1025392
20:00−2˚sse49750 0.0 1024458
3 december, thu
thu323:00−2˚se497940 0.0 1023443
02:00−2˚se497970 0.0 1021443
05:00−3˚se498581 0.0 1019417
08:00−3˚se4108872 0.0 1017468
11:00−2˚sse598398 0.0 1016622
14:00−1˚sse597596 0.0 1015658
17:00−1˚se61376100 0.0 1013574
20:00−1˚se61379100 0.1 1012672
4 december, fri
fri423:00se71479100 0.1 1011732
02:00sse61391100 1.5 1010745
05:00+1˚se61483100 1.4 1009699
08:00+1˚se61381100 1.6 1008649
11:00+2˚se71582100 0.0 1008630
14:00+3˚se71682100 0.0 1007730
17:00+3˚se81784100 0.0 1006673
20:00+2˚se7178793 0.0 1006702
5 december, sat
sat523:00+3˚sse5168996 0.0 1007717
02:00+3˚sse5169098 0.0 1007696
05:00+4˚sse61690100 0.0 1008615
08:00+4˚sse61789100 0.0 1009600
11:00+6˚se61687100 0.0 1010651
14:00+7˚se61584100 0.0 1011686
17:00+7˚se61588100 0.0 1011703
20:00+7˚se61688100 0.0 1012731
6 december, sun
sun623:00+7˚se7168899 0.0 1013649
02:00+7˚se7168698 0.0 1013658
05:00+7˚se71685100 0.0 1013674
08:00+7˚se71684100 0.0 1014681
11:00+7˚se81680100 0.0 1014781
14:00+7˚se81576100 0.0 1014831
17:00+6˚se81475100 0.0 1014874
20:00+4˚se81576100 0.0 1015909